Temperature
2 2 2 2 2 2 2 2 2 2 2 2 2 2 2 2 2 3 3 3 3 3 3 3 3 3 3 3 3 3 3 4 4 4 4 4 4 5
2 2 2 1 1 1 1 1 1 1 1 2 2 2 2 2 2 2 2 2 3 3 3 3 3 3 3 3 3 3 3 3 3 3 3 4 4 4
1 1 1 1 1 1 1 1 1 1 1 1 1 1 1 1 1 2 2 2 2 2 2 3 3 2 3 2 2 2 3 3 3 3 3 3 3 3
1 1 1 1 0 0 0 0 0 0 0 1 1 1 0 1 1 1 1 1 1 2 2 2 2 2 2 2 2 2 2 2 2 2 2 3 3 3
0 0 0 0 0 0 -0 -0 -0 0 0 0 0 0 0 0 0 0 1 1 1 1 2 2 2 2 2 2 2 2 2 2 2 2 2 2 2 3
-0 0 0 0 0 -0 -0 -0 -0 -0 -0 -0 -0 -0 -0 -0 -0 -0 -0 0 0 1 1 1 1 1 1 1 1 1 1 1 1 1 2 2 2 2
-1 -1 -0 -0 -1 -1 -1 -1 -1 -1 -1 -1 -1 -1 -1 -1 -1 -1 -1 -0 0 0 0 1 1 1 1 1 1 1 1 1 1 1 1 1 2 2
-1 -1 -1 -1 -1 -1 -1 -1 -1 -1 -1 -1 -1 -1 -1 -1 -1 -1 -1 -1 -1 -0 -0 -0 0 0 0 0 0 1 1 1 1 1 1 1 1 1
-1 -1 -1 -1 -1 -1 -1 -1 -1 -1 -1 -1 -1 -1 -1 -1 -1 -1 -1 -1 -1 -1 -1 -1 -0 -0 -0 0 0 0 0 0 0 0 0 0 0 1
-2 -2 -2 -2 -1 -2 -2 -2 -2 -2 -2 -2 -2 -2 -2 -2 -2 -2 -2 -2 -2 -1 -1 -2 -1 -1 -0 -0 -0 -0 0 0 -0 -0 -0 -0 0 0
-2 -2 -2 -2 -2 -2 -2 -2 -2 -2 -2 -2 -2 -2 -2 -2 -2 -2 -2 -2 -2 -2 -2 -2 -2 -1 -1 -1 -0 -0 -0 -0 -0 -0 -0 -0 -0 -0
-3 -3 -3 -3 -3 -3 -3 -3 -3 -2 -2 -2 -2 -2 -2 -2 -2 -2 -2 -2 -2 -2 -2 -2 -2 -2 -2 -1 -1 -1 -1 -1 -1 -1 -1 -1 -0 -0
-3 -3 -3 -3 -3 -3 -3 -3 -3 -3 -3 -2 -2 -2 -2 -2 -2 -2 -2 -2 -2 -2 -2 -2 -2 -2 -2 -2 -2 -1 -1 -1 -1 -1 -1 -1 -1 -1
-3 -3 -3 -3 -3 -3 -3 -3 -3 -3 -3 -3 -3 -3 -3 -2 -2 -2 -2 -2 -2 -2 -2 -2 -2 -2 -2 -3 -2 -2 -2 -2 -2 -1 -1 -1 -1 -1
-4 -4 -4 -4 -4 -3 -3 -3 -3 -3 -3 -3 -3 -3 -3 -3 -3 -3 -3 -3 -3 -2 -2 -2 -2 -2 -2 -3 -3 -2 -2 -2 -2 -2 -2 -2 -1 -1
-4 -4 -4 -4 -4 -4 -4 -4 -4 -3 -3 -3 -3 -3 -3 -3 -3 -3 -3 -3 -3 -2 -2 -2 -3 -3 -3 -3 -3 -3 -2 -2 -2 -2 -2 -2 -2 -2
-4 -4 -4 -4 -4 -4 -4 -4 -4 -4 -4 -4 -4 -4 -4 -4 -4 -4 -3 -3 -3 -3 -3 -3 -3 -3 -3 -3 -3 -3 -3 -3 -3 -3 -2 -2 -2 -2
-4 -5 -5 -4 -4 -5 -5 -4 -4 -4 -4 -4 -4 -4 -4 -4 -4 -4 -4 -4 -3 -3 -3 -3 -3 -3 -3 -3 -3 -3 -3 -3 -3 -3 -3 -3 -2 -2
-5 -5 -5 -5 -5 -5 -5 -5 -5 -4 -4 -4 -4 -4 -4 -4 -4 -4 -4 -4 -4 -3 -3 -3 -3 -3 -3 -3 -3 -3 -3 -3 -3 -3 -3 -3 -2 -2
-5 -5 -5 -5 -5 -5 -5 -5 -5 -5 -5 -5 -5 -5 -5 -4 -4 -4 -4 -4 -4 -4 -4 -3 -3 -3 -3 -3 -3 -3 -3 -3 -3 -3 -3 -3 -2 -2
-5 -5 -5 -5 -5 -5 -5 -5 -5 -5 -5 -5 -5 -5 -5 -4 -4 -4 -4 -4 -4 -4 -4 -3 -3 -3 -3 -3 -3 -3 -3 -3 -3 -3 -3 -3 -2 -2
-5 -5 -5 -5 -5 -5 -5 -5 -5 -5 -5 -5 -5 -5 -5 -4 -4 -4 -4 -4 -4 -4 -4 -3 -3 -3 -3 -3 -3 -3 -3 -3 -3 -3 -3 -3 -3 -3
-5 -5 -5 -5 -5 -5 -5 -5 -5 -5 -5 -5 -5 -5 -4 -4 -4 -4 -4 -4 -4 -4 -4 -4 -3 -3 -3 -3 -3 -3 -3 -3 -3 -3 -3 -3 -3 -3
Wind_Speed
6 6 6 5 5 5 5 6 6 6 7 6 4 4 5 6 7 8 8 9 11 11 12 12 12 13 14 14 15 16 15 15 15 15 16 16 16 16
5 7 6 5 6 5 5 6 6 6 6 5 6 7 6 6 8 9 9 11 11 11 11 11 11 12 13 13 14 15 14 13 14 14 15 15 16 16
6 7 7 7 6 5 5 5 6 6 7 7 7 7 8 7 7 8 9 9 8 10 11 11 12 12 13 13 14 14 13 13 13 13 14 14 14 15
7 7 7 6 7 6 5 6 6 6 7 8 7 7 8 8 7 8 7 7 8 9 10 11 12 13 13 13 13 12 12 13 13 13 13 14 14 15
7 7 7 7 7 6 6 6 5 5 5 6 7 6 6 6 7 7 8 7 7 8 9 11 12 12 12 12 11 12 12 12 13 13 13 13 13 13
6 6 7 7 7 7 6 6 5 5 5 5 6 6 6 6 6 6 7 6 6 6 7 9 10 10 10 10 11 11 11 11 12 12 12 12 12 12
5 6 6 7 8 7 6 5 5 5 5 5 5 5 6 5 5 5 7 6 6 5 6 6 6 6 6 8 9 10 10 10 11 12 12 11 11 11
5 5 5 5 6 7 8 7 7 6 6 5 5 6 7 7 6 5 6 6 5 4 5 6 5 6 6 6 7 9 9 10 10 10 10 9 9 9
5 4 4 3 4 4 4 5 6 7 8 7 7 8 8 7 6 6 6 6 6 6 6 6 5 6 6 6 8 8 9 9 10 10 10 9 9 9
4 4 4 4 3 3 3 4 4 5 6 6 6 7 7 6 6 6 6 6 6 5 5 6 6 6 6 6 7 7 8 9 9 9 9 9 9 8
4 4 4 4 4 4 3 3 4 4 4 5 7 7 7 7 6 4 4 4 5 5 4 4 4 5 6 6 6 7 7 8 8 9 9 8 8 7
3 4 4 4 4 4 3 3 4 4 4 4 4 5 5 5 6 5 4 5 5 4 3 3 4 4 4 4 4 5 5 6 7 8 7 7 6 4
3 3 3 4 4 4 4 4 5 5 4 4 4 4 4 3 4 4 4 4 5 5 4 3 3 3 3 4 5 5 5 5 5 5 5 6 5 4
3 3 3 3 4 5 4 4 5 4 3 3 3 3 3 4 4 4 4 4 5 6 6 4 3 4 4 4 4 4 4 4 4 4 4 5 4 4
3 3 3 4 4 3 3 4 3 3 2 2 3 3 3 4 4 3 4 3 4 5 4 4 4 4 3 4 4 4 4 4 4 3 4 4 4 3
2 2 2 3 2 2 2 2 2 2 2 3 3 3 3 3 3 3 3 3 3 4 4 3 3 3 3 4 3 3 3 2 3 3 3 3 4 4
1 1 1 1 1 1 1 1 2 2 2 2 3 3 3 3 3 3 3 3 3 3 4 3 3 2 2 3 3 3 3 2 3 3 3 3 3 3
2 1 1 1 2 2 2 2 2 2 2 3 3 3 3 3 3 3 3 3 3 3 3 3 3 3 2 2 3 3 3 2 3 3 2 2 3 3
1 1 2 2 2 2 2 2 2 2 3 3 3 3 3 3 3 3 3 3 3 3 3 3 3 3 2 3 3 3 2 2 2 2 2 2 2 3
1 1 2 2 2 2 2 2 3 3 3 3 3 3 3 3 3 3 3 3 3 3 3 2 2 3 2 2 2 3 3 2 1 1 2 2 2 2
1 1 2 2 2 2 2 3 3 3 3 3 3 3 3 3 3 3 3 3 3 2 3 3 3 4 2 1 1 2 3 3 3 1 2 1 2 2
2 2 2 2 2 2 3 3 3 3 3 3 3 3 3 3 3 3 3 3 2 2 3 3 3 2 1 1 1 1 2 3 4 5 4 2 1 1
2 2 2 2 2 2 3 3 3 3 3 3 3 3 3 3 3 3 3 3 2 2 2 2 2 2 1 1 1 1 2 3 3 4 4 6 5 4
Wind_Direction
244 245 248 251 252 252 252 249 255 269 273 275 273 272 286 285 289 288 290 292 292 289 285 284 284 285 288 288 291 292 293 295 295 294 291 290 292 292
247 245 247 251 251 248 247 250 248 255 268 276 281 285 284 280 286 286 286 289 284 285 285 286 287 287 291 291 294 293 290 292 294 295 294 292 293 294
249 247 248 251 252 253 248 248 248 250 262 276 280 288 286 283 285 287 287 287 284 282 285 290 290 289 289 290 293 292 292 293 294 294 295 295 296 295
249 249 251 253 256 257 255 253 252 252 259 272 281 286 286 287 286 288 289 286 284 285 288 290 288 287 287 288 288 289 292 293 293 293 294 295 294 295
251 251 253 254 256 257 259 258 257 259 260 267 279 282 282 286 290 288 287 285 288 288 289 286 284 284 285 285 287 290 292 293 293 294 296 295 296 294
256 257 256 254 255 257 258 255 254 259 260 265 272 279 282 285 288 289 289 287 289 297 296 291 286 282 279 282 287 292 293 295 295 294 295 296 297 297
262 263 263 261 260 258 255 250 247 252 258 261 270 278 280 285 283 286 289 292 294 296 299 296 293 286 283 282 286 295 297 297 298 298 297 296 298 300
264 270 270 266 265 261 256 256 249 248 253 258 264 270 275 278 284 283 287 294 297 309 304 299 298 290 288 289 296 297 296 298 301 302 303 302 301 301
262 268 273 273 273 271 268 268 266 261 258 260 263 268 273 276 280 282 286 289 288 299 301 292 298 297 300 299 298 297 298 300 302 301 302 300 299 299
264 264 268 273 272 277 281 285 283 278 272 268 268 275 279 282 278 279 286 291 291 291 289 284 294 296 306 309 303 297 299 300 301 302 303 302 299 299
267 265 265 266 274 280 278 284 291 292 284 275 279 285 293 293 288 282 281 281 286 289 289 278 292 307 307 304 314 310 303 302 305 305 304 304 301 296
271 266 263 270 276 279 272 270 277 285 297 301 296 293 292 292 289 277 274 278 284 285 287 280 291 306 305 301 315 324 322 316 311 310 313 313 307 299
271 269 265 268 281 285 283 272 277 290 289 289 293 299 301 299 300 295 286 278 276 274 283 280 288 294 284 294 309 318 325 330 329 328 326 329 326 317
268 271 270 271 282 287 287 291 298 297 286 285 289 297 304 307 307 307 300 295 289 282 283 279 277 283 287 293 299 313 325 335 335 335 338 338 338 340
272 275 282 279 277 278 280 288 287 280 279 282 285 294 300 302 304 305 307 303 306 305 295 288 278 281 280 281 292 305 312 324 335 342 348 347 345 347
280 271 281 289 273 271 280 281 274 276 281 284 288 295 303 304 302 302 304 311 318 325 328 320 304 288 287 290 291 300 309 314 328 337 343 347 352 356
289 278 275 274 282 291 294 293 289 285 285 287 290 295 300 300 299 302 306 311 305 309 320 326 334 339 322 313 294 296 306 316 321 326 335 342 346 352
278 255 252 262 274 280 284 290 292 292 292 286 282 283 289 293 298 304 307 305 304 304 304 310 313 315 316 337 324 295 307 315 322 332 332 333 339 345
255 247 251 257 269 276 281 288 291 290 285 280 279 282 285 287 294 301 303 301 302 306 310 312 310 309 317 320 330 332 301 312 319 330 335 332 328 338
273 264 268 271 270 276 282 286 289 288 284 281 281 282 281 284 288 292 292 292 294 299 304 308 311 311 300 291 299 329 340 309 308 316 333 340 341 337
287 285 282 280 276 278 281 284 284 283 284 284 284 284 281 279 284 289 289 292 290 290 293 298 300 309 307 311 333 349 4 10 352 322 320 336 343 355
285 291 290 286 284 281 281 282 279 278 281 283 286 286 283 278 279 283 283 280 283 290 295 306 321 324 330 327 342 1 7 13 31 38 35 21 328 331
290 291 290 286 280 276 277 275 276 278 280 283 284 283 283 280 277 275 277 277 280 294 305 318 337 352 1 360 11 19 23 18 28 37 38 39 48 50
Height
1461 1461 1461 1461 1461 1461 1461 1461 1461 1458 1456 1455 1454 1453 1451 1450 1449 1447 1445 1444 1442 1440 1439 1438 1437 1436 1435 1434 1432 1431 1430 1429 1428 1427 1426 1425 1423 1422
1456 1456 1456 1456 1456 1456 1456 1456 1455 1455 1453 1451 1450 1449 1447 1445 1444 1442 1441 1439 1437 1435 1434 1433 1432 1431 1430 1428 1427 1426 1425 1424 1422 1421 1420 1419 1418 1417
1452 1452 1451 1452 1452 1452 1451 1451 1451 1450 1449 1447 1446 1444 1443 1441 1439 1438 1436 1434 1432 1430 1429 1428 1427 1425 1424 1422 1421 1420 1419 1418 1417 1416 1415 1413 1412 1412
1447 1447 1447 1447 1447 1447 1447 1446 1446 1445 1445 1443 1441 1440 1439 1437 1435 1433 1431 1429 1427 1426 1424 1423 1422 1420 1419 1417 1416 1415 1414 1413 1412 1411 1409 1408 1407 1406
1443 1443 1442 1442 1442 1442 1442 1441 1441 1441 1440 1439 1437 1436 1434 1433 1431 1429 1427 1424 1422 1421 1419 1418 1417 1416 1414 1412 1411 1410 1409 1408 1407 1406 1405 1403 1402 1401
1439 1438 1438 1438 1437 1437 1437 1437 1437 1436 1436 1435 1433 1432 1431 1429 1427 1425 1422 1420 1418 1416 1415 1414 1413 1411 1409 1408 1407 1405 1404 1403 1402 1401 1400 1399 1397 1396
1435 1434 1433 1433 1433 1433 1433 1433 1433 1432 1432 1431 1429 1428 1427 1425 1423 1421 1419 1416 1413 1412 1411 1410 1408 1406 1405 1403 1402 1401 1400 1399 1398 1397 1396 1394 1393 1392
1431 1430 1430 1429 1429 1429 1429 1429 1429 1429 1428 1427 1426 1425 1423 1422 1420 1418 1416 1413 1410 1410 1408 1406 1404 1402 1401 1400 1398 1397 1396 1395 1394 1392 1391 1390 1389 1388
1428 1427 1426 1426 1426 1425 1425 1425 1425 1425 1425 1424 1422 1421 1420 1419 1417 1415 1413 1410 1408 1407 1406 1402 1401 1398 1397 1396 1395 1394 1393 1391 1390 1388 1387 1386 1385 1384
1425 1424 1424 1423 1423 1423 1422 1422 1421 1421 1421 1420 1419 1418 1417 1415 1414 1412 1410 1407 1406 1405 1403 1400 1397 1396 1394 1393 1392 1391 1389 1388 1386 1384 1383 1382 1381 1380
1422 1421 1421 1420 1420 1420 1419 1418 1418 1418 1417 1417 1416 1415 1413 1412 1411 1409 1407 1406 1403 1402 1401 1398 1395 1393 1391 1390 1389 1387 1385 1384 1382 1381 1380 1379 1378 1377
1418 1418 1418 1418 1418 1417 1417 1416 1415 1415 1414 1413 1412 1411 1410 1409 1407 1406 1405 1404 1402 1399 1398 1396 1394 1392 1389 1387 1386 1384 1382 1381 1379 1378 1377 1376 1375 1375
1416 1416 1415 1415 1415 1415 1414 1414 1413 1412 1411 1410 1409 1408 1407 1406 1404 1403 1402 1401 1400 1398 1396 1395 1392 1390 1389 1386 1383 1382 1380 1378 1377 1375 1375 1374 1373 1373
1413 1413 1413 1413 1412 1412 1411 1411 1410 1410 1409 1408 1407 1405 1404 1403 1402 1401 1400 1399 1397 1396 1394 1392 1390 1389 1387 1384 1382 1380 1379 1377 1376 1374 1373 1372 1372 1371
1411 1411 1410 1410 1409 1409 1408 1408 1408 1407 1406 1405 1404 1403 1402 1401 1399 1398 1397 1396 1394 1393 1391 1390 1388 1387 1385 1383 1380 1379 1377 1376 1375 1373 1372 1371 1371 1370
1409 1408 1408 1407 1407 1406 1406 1406 1405 1405 1404 1403 1402 1401 1400 1399 1398 1396 1395 1393 1392 1390 1390 1388 1386 1385 1383 1381 1380 1378 1377 1376 1375 1373 1372 1371 1370 1369
1406 1406 1405 1405 1405 1404 1404 1403 1403 1402 1402 1401 1400 1399 1398 1397 1396 1395 1393 1392 1391 1389 1388 1387 1385 1383 1381 1380 1378 1377 1376 1375 1374 1373 1372 1370 1369 1369
1405 1404 1403 1403 1402 1402 1402 1401 1401 1400 1399 1399 1398 1397 1396 1395 1394 1393 1392 1391 1389 1388 1386 1385 1383 1382 1380 1378 1378 1376 1375 1374 1374 1373 1372 1371 1369 1369
1403 1402 1401 1401 1400 1400 1400 1399 1399 1398 1397 1397 1396 1395 1395 1394 1393 1391 1390 1389 1388 1387 1385 1384 1382 1381 1379 1377 1376 1376 1375 1374 1374 1373 1372 1371 1370 1369
1401 1400 1399 1399 1398 1398 1398 1397 1397 1396 1396 1395 1394 1393 1393 1392 1391 1390 1389 1388 1387 1386 1384 1383 1382 1380 1379 1378 1376 1375 1375 1374 1374 1373 1372 1371 1370 1370
1399 1398 1398 1397 1397 1396 1396 1395 1395 1394 1394 1393 1392 1392 1391 1390 1389 1388 1387 1386 1386 1384 1383 1382 1381 1380 1378 1377 1376 1375 1375 1374 1374 1373 1372 1371 1370 1369
1397 1397 1396 1395 1395 1394 1394 1393 1393 1392 1392 1391 1390 1390 1389 1389 1388 1387 1386 1385 1384 1383 1382 1381 1380 1379 1378 1377 1376 1375 1375 1375 1374 1374 1373 1373 1371 1370
1396 1395 1394 1394 1393 1393 1392 1392 1391 1390 1390 1389 1389 1388 1388 1387 1387 1386 1385 1384 1383 1382 1381 1380 1380 1379 1378 1378 1377 1376 1375 1375 1374 1374 1374 1373 1372 1372